ONEWEB-0707, 61612

Orbit data source: Space-Track

ONEWEB-0707, 61612 is a payload satellite owned by Eut. One Web (UK) in LEO that was launched on Sun, 20 Oct 2024 UTC via an FALCON 9 launch vehicle from the Air Force Western Test Range (AFWTR). Payload-class satellites include a variety of spacecraft equipped with specific instruments for various scientific and technological missions. These include communications satellites like Starlink; space stations such as the ISS; scientific satellites like the Hubble; Earth observation satellites from companies like Planet Labs, Umbra, and HawkEye 360; GPS; miniature CubeSats for education and research; and military/defense satellites.

Loading next visibility...
Identifier
61612, 2024-188U
Orbit
LEO
Country
Flag of UKUK
Related business
Manufacturer
One Web
Mission
Operational Commercial Communications
Bus & Motor
ARROW, Unknown motor
Mass
148 kg wet, ~140 kg dry
Launch date (UTC)
2024-10-20 (11 months ago)
Launch vehicle
FALCON 9
Launch site
Air Force Western Test Range (AFWTR)
Object type
Payload
Rocket body
Debris
Shape & HBR
Trap Box + 2 Pan, 2.5 m
Radar Cross Section
2.032 m², Large (>1 m²)

Expand to show TLE details & history
Last TLE update: 8 hours ago

TLE from 8 hours ago
0 ONEWEB-0707
1 61612U 24188U   25260.92800155 -.00000230  00000-0 -69493-3 0  9995
2 61612  87.8740  90.5293 0001882 108.0173 252.1159 13.10369376 47666
Epoch: 2025-09-17T22:16Z
TLE epoch observation values (Epoch: 2025-09-17T22:16:19.333Z)
Latitude
-0.0001°
Longitude
119.35182°
Altitude
1,225.058 km
Speed
7.242 km/s
True Right ascension
06h 02m 07s
True Declination
0° 00' 00"
Sunlit
Object was in daylight at epoch
Visualization orbit readout
Latitude
Unknown
Longitude
Unknown
Altitude
Unknown
Speed
Unknown
Apparent Right ascension
Unknown
Apparent Declination
Unknown
Sunlit
N/A
Visualization observer readout
Local Sidereal Time
23:29:59
Azimuth
Unknown
Elevation
Unknown
Doppler factor
Unknown
Orbital elements
Apogee altitude
1,220.28 km
Perigee altitude
1,217.421 km
Semi-major axis
7,596.987 km
Eccentricity
0.00019
Inclination
87.874°
RAAN
90.5293°
Arg. of periapsis
108.0173°
True anomaly
252.09538°
Mean anomaly
252.1159°
Eccentric anomaly
252.10564°
Mean motion
3.27779 °/min
Orbital period
109.83 mins
BSTAR
-0.00069493
Loading maneuver chart data...
Computing Atmospheric mass density...
Loading historical data...
Loading historical data...
Loading historical data...
Loading historical data...
Loading historical data...
Loading historical data...
Loading historical data...

Documentation

Showing up to 5 results
|